FALCON 9 R/B, 41590

Orbit data source: Space-Track

FALCON 9 R/B, 41590 is space debris in HEO originally from a launch on Wed, 15 Jun 2016 UTC launched from the Air Force Eastern Test Range (AFETR). Debris objects in space refer to the collection of defunct objects orbiting the Earth. Examples of debris include non-operational satellites, rocket bodies, and fragments generated from explosions, collisions, or faulty payload assembly.

Loading next visibility...
Identifier
41590, 2016-038C
Orbit
HEO
Country
Flag of USUS
Related business
Manufacturer
SpaceX
Mission
Spacecraft
Bus & Motor
F9ST2, Unknown motor
Mass
~4,000 kg wet, ~4,000 kg dry
Launch date (UTC)
2016-06-15 (10 years ago)
Launch vehicle
Unknown
Launch site
Air Force Eastern Test Range (AFETR)
Object type
Payload
Rocket body
Debris
Shape & HBR
Cyl, 7.8 m
Radar Cross Section
39.980 m², Large (>1 m²)

Expand to show TLE details & history
Last TLE update: 4 days ago

TLE from 4 days ago
0 FALCON 9 R/B
1 41590U 16038C   26169.19378742  .00002392  00000-0  32680-2 0  9999
2 41590  23.6260 321.5630 7969959 310.4373   3.6743  1.45860198 46088
Epoch: 2026-06-18T04:39Z
TLE epoch observation values (Epoch: 2026-06-18T04:39:03.233Z)
Latitude
-0.00412°
Longitude
-14.75901°
Altitude
1,459.384 km
Speed
9.464 km/s
True Right ascension
21h 25m 46s
True Declination
0° 00' 15"
Sunlit
Object was in daylight at epoch
Visualization orbit readout
Latitude
Unknown
Longitude
Unknown
Altitude
Unknown
Speed
Unknown
Apparent Right ascension
Unknown
Apparent Declination
Unknown
Sunlit
N/A
Visualization observer readout
Local Sidereal Time
21:35:50
Azimuth
Unknown
Elevation
Unknown
Doppler factor
Unknown
Orbital elements
Apogee altitude
52,649.095 km
Perigee altitude
290.086 km
Semi-major axis
32,847.728 km
Eccentricity
0.797
Inclination
23.626°
RAAN
321.563°
Arg. of periapsis
310.4373°
True anomaly
48.21456°
Mean anomaly
3.6743°
Eccentric anomaly
17.10632°
Mean motion
0.36457 °/min
Orbital period
987.46 mins
BSTAR
0.003268
Loading maneuver chart data...
Computing Atmospheric mass density...
Loading historical data...
Loading historical data...
Loading historical data...
Loading historical data...
Loading historical data...
Loading historical data...
Loading historical data...
Other satellites on launch #38 in the year 2016 (2016-06-15 UTC)

Documentation

Showing up to 5 results
|